Year,Month,Day,Hour,Minute,Value (Times are PST for temperature in C)
2009,06,26,00,00,11.40
2009,06,26,00,05,11.40
2009,06,26,00,06,11.40
2009,06,26,00,07,11.40
2009,06,26,00,08,11.40
2009,06,26,00,09,11.40
2009,06,26,00,10,11.30
2009,06,26,00,11,11.30
2009,06,26,00,12,11.30
2009,06,26,00,13,11.30
2009,06,26,00,14,11.30
2009,06,26,00,15,11.30
2009,06,26,00,16,11.30
2009,06,26,00,17,11.30
2009,06,26,00,18,11.30
2009,06,26,00,19,11.30
2009,06,26,00,20,11.30
2009,06,26,00,21,11.30
2009,06,26,00,22,11.30
2009,06,26,00,23,11.20
2009,06,26,00,24,11.20
2009,06,26,00,25,11.20
2009,06,26,00,26,11.20
2009,06,26,00,27,11.20
2009,06,26,00,28,11.20
2009,06,26,00,29,11.20
2009,06,26,00,30,11.20
2009,06,26,00,31,11.20
2009,06,26,00,32,11.20
2009,06,26,00,33,11.20
2009,06,26,00,34,11.10
2009,06,26,00,35,11.10
2009,06,26,00,36,11.10
2009,06,26,00,37,11.10
2009,06,26,00,38,11.10
2009,06,26,00,39,11.10
2009,06,26,00,40,11.10
2009,06,26,00,41,11.10
2009,06,26,00,42,11.10
2009,06,26,00,43,11.10
2009,06,26,00,44,11.10
2009,06,26,00,45,11.10
2009,06,26,00,46,11.10
2009,06,26,00,47,11.10
2009,06,26,00,48,11.10
2009,06,26,00,49,11.10
2009,06,26,00,50,11.10
2009,06,26,00,51,11.10
2009,06,26,00,52,11.10
2009,06,26,00,53,11.10
2009,06,26,00,54,11.10
2009,06,26,00,55,11.10
2009,06,26,00,56,11.10
2009,06,26,00,57,11.10
2009,06,26,00,58,11.20
2009,06,26,00,59,11.20
2009,06,26,01,00,11.20
2009,06,26,01,01,11.20
2009,06,26,01,02,11.20
2009,06,26,01,03,11.20
2009,06,26,01,04,11.20
2009,06,26,01,05,11.20
2009,06,26,01,06,11.20
2009,06,26,01,07,11.20
2009,06,26,01,08,11.20
2009,06,26,01,09,11.20
2009,06,26,01,10,11.20
2009,06,26,01,11,11.20
2009,06,26,01,12,11.10
2009,06,26,01,13,11.10
2009,06,26,01,14,11.00
2009,06,26,01,15,11.00
2009,06,26,01,16,11.00
2009,06,26,01,17,11.00
2009,06,26,01,18,10.90
2009,06,26,01,19,10.90
2009,06,26,01,20,10.90
2009,06,26,01,21,10.90
2009,06,26,01,22,10.80
2009,06,26,01,23,10.80
2009,06,26,01,24,10.80
2009,06,26,01,25,10.80
2009,06,26,01,26,10.80
2009,06,26,01,27,10.70
2009,06,26,01,28,10.70
2009,06,26,01,29,10.70
2009,06,26,01,30,10.60
2009,06,26,01,31,10.60
2009,06,26,01,32,10.60
2009,06,26,01,33,10.50
2009,06,26,01,34,10.50
2009,06,26,01,35,10.50
2009,06,26,01,36,10.50
2009,06,26,01,37,10.50
2009,06,26,01,38,10.50
2009,06,26,01,39,10.50
2009,06,26,01,40,10.50
2009,06,26,01,41,10.50
2009,06,26,01,42,10.50
2009,06,26,01,43,10.40
2009,06,26,01,44,10.40
2009,06,26,01,45,10.40
2009,06,26,01,46,10.40
2009,06,26,01,47,10.40
2009,06,26,01,48,10.40
2009,06,26,01,49,10.40
2009,06,26,01,50,10.30
2009,06,26,01,51,10.30
2009,06,26,01,52,10.30
2009,06,26,01,53,10.30
2009,06,26,01,54,10.30
2009,06,26,01,55,10.30
2009,06,26,01,56,10.30
2009,06,26,01,57,10.30
2009,06,26,01,58,10.40
2009,06,26,01,59,10.40
2009,06,26,02,00,10.40
2009,06,26,02,01,10.40
2009,06,26,02,02,10.40
2009,06,26,02,03,10.40
2009,06,26,02,04,10.40
2009,06,26,02,05,10.40
2009,06,26,02,06,10.40
2009,06,26,02,07,10.40
2009,06,26,02,08,10.30
2009,06,26,02,09,10.30
2009,06,26,02,10,10.30
2009,06,26,02,11,10.30
2009,06,26,02,12,10.30
2009,06,26,02,13,10.30
2009,06,26,02,14,10.30
2009,06,26,02,15,10.30
2009,06,26,02,16,10.30
2009,06,26,02,17,10.30
2009,06,26,02,18,10.20
2009,06,26,02,19,10.20
2009,06,26,02,20,10.20
2009,06,26,02,21,10.20
2009,06,26,02,22,10.10
2009,06,26,02,23,10.10
2009,06,26,02,24,10.10
2009,06,26,02,25,10.10
2009,06,26,02,26,10.10
2009,06,26,02,27,10.10
2009,06,26,02,28,10.00
2009,06,26,02,29,10.00
2009,06,26,02,30,10.00
2009,06,26,02,31,9.90
2009,06,26,02,32,9.90
2009,06,26,02,33,9.90
2009,06,26,02,34,9.90
2009,06,26,02,35,9.80
2009,06,26,02,36,9.80
2009,06,26,02,37,9.80
2009,06,26,02,38,9.80
2009,06,26,02,39,9.80
2009,06,26,02,40,9.70
2009,06,26,02,41,9.70
2009,06,26,02,42,9.70
2009,06,26,02,43,9.70
2009,06,26,02,44,9.70
2009,06,26,02,45,9.70
2009,06,26,02,46,9.60
2009,06,26,02,47,9.60
2009,06,26,02,48,9.60
2009,06,26,02,49,9.60
2009,06,26,02,50,9.60
2009,06,26,02,51,9.60
2009,06,26,02,52,9.60
2009,06,26,02,53,9.60
2009,06,26,02,54,9.60
2009,06,26,02,55,9.50
2009,06,26,02,56,9.50
2009,06,26,02,57,9.40
2009,06,26,02,58,9.40
2009,06,26,02,59,9.40
2009,06,26,03,00,9.40
2009,06,26,03,01,9.40
2009,06,26,03,02,9.30
2009,06,26,03,03,9.30
2009,06,26,03,04,9.30
2009,06,26,03,05,9.30
2009,06,26,03,06,9.30
2009,06,26,03,07,9.30
2009,06,26,03,08,9.30
2009,06,26,03,09,9.20
2009,06,26,03,10,9.20
2009,06,26,03,11,9.20
2009,06,26,03,12,9.20
2009,06,26,03,13,9.20
2009,06,26,03,14,9.20
2009,06,26,03,15,9.20
2009,06,26,03,16,9.20
2009,06,26,03,17,9.20
2009,06,26,03,18,9.10
2009,06,26,03,19,9.10
2009,06,26,03,20,9.10
2009,06,26,03,21,9.10
2009,06,26,03,22,9.10
2009,06,26,03,23,9.00
2009,06,26,03,24,9.00
2009,06,26,03,25,9.00
2009,06,26,03,26,9.00
2009,06,26,03,27,9.00
2009,06,26,03,28,9.00
2009,06,26,03,29,8.90
2009,06,26,03,30,8.90
2009,06,26,03,31,8.90
2009,06,26,03,32,8.90
2009,06,26,03,33,8.90
2009,06,26,03,34,8.90
2009,06,26,03,35,8.90
2009,06,26,03,36,8.90
2009,06,26,03,37,8.90
2009,06,26,03,38,8.90
2009,06,26,03,39,8.90
2009,06,26,03,40,8.90
2009,06,26,03,41,8.90
2009,06,26,03,42,8.90
2009,06,26,03,43,8.80
2009,06,26,03,44,8.80
2009,06,26,03,45,8.80
2009,06,26,03,46,8.80
2009,06,26,03,47,8.80
2009,06,26,03,48,8.80
2009,06,26,03,49,8.80
2009,06,26,03,50,8.80
2009,06,26,03,51,8.70
2009,06,26,03,52,8.70
2009,06,26,03,53,8.70
2009,06,26,03,54,8.70
2009,06,26,03,55,8.70
2009,06,26,03,56,8.70
2009,06,26,03,57,8.70
2009,06,26,03,58,8.60
2009,06,26,03,59,8.60
2009,06,26,04,00,8.60
2009,06,26,04,01,8.60
2009,06,26,04,02,8.60
2009,06,26,04,03,8.60
2009,06,26,04,04,8.60
2009,06,26,04,05,8.50
2009,06,26,04,06,8.50
2009,06,26,04,07,8.50
2009,06,26,04,08,8.50
2009,06,26,04,09,8.50
2009,06,26,04,10,8.50
2009,06,26,04,11,8.50
2009,06,26,04,12,8.40
2009,06,26,04,13,8.40
2009,06,26,04,14,8.40
2009,06,26,04,15,8.40
2009,06,26,04,16,8.40
2009,06,26,04,17,8.30
2009,06,26,04,18,8.30
2009,06,26,04,19,8.30
2009,06,26,04,20,8.30
2009,06,26,04,21,8.20
2009,06,26,04,22,8.20
2009,06,26,04,23,8.20
2009,06,26,04,24,8.20
2009,06,26,04,25,8.20
2009,06,26,04,26,8.20
2009,06,26,04,27,8.20
2009,06,26,04,28,8.20
2009,06,26,04,29,8.20
2009,06,26,04,30,8.20
2009,06,26,04,31,8.20
2009,06,26,04,32,8.20
2009,06,26,04,33,8.20
2009,06,26,04,34,8.20
2009,06,26,04,35,8.20
2009,06,26,04,36,8.20
2009,06,26,04,37,8.20
2009,06,26,04,38,8.20
2009,06,26,04,39,8.20
2009,06,26,04,40,8.20
2009,06,26,04,41,8.20
2009,06,26,04,42,8.20
2009,06,26,04,43,8.20
2009,06,26,04,44,8.20
2009,06,26,04,45,8.20
2009,06,26,04,46,8.20
2009,06,26,04,47,8.30
2009,06,26,04,48,8.30
2009,06,26,04,49,8.30
2009,06,26,04,50,8.30
2009,06,26,04,51,8.30
2009,06,26,04,52,8.30
2009,06,26,04,53,8.30
2009,06,26,04,54,8.30
2009,06,26,04,55,8.30
2009,06,26,04,56,8.30
2009,06,26,04,57,8.30
2009,06,26,04,58,8.30
2009,06,26,04,59,8.30
2009,06,26,05,00,8.30
2009,06,26,05,01,8.30
2009,06,26,05,02,8.30
2009,06,26,05,03,8.30
2009,06,26,05,04,8.30
2009,06,26,05,05,8.30
2009,06,26,05,06,8.30
2009,06,26,05,07,8.20
2009,06,26,05,08,8.20
2009,06,26,05,09,8.20
2009,06,26,05,10,8.20
2009,06,26,05,11,8.20
2009,06,26,05,12,8.20
2009,06,26,05,13,8.20
2009,06,26,05,14,8.20
2009,06,26,05,15,8.20
2009,06,26,05,16,8.20
2009,06,26,05,17,8.10
2009,06,26,05,18,8.10
2009,06,26,05,19,8.10
2009,06,26,05,20,8.10
2009,06,26,05,21,8.00
2009,06,26,05,22,8.00
2009,06,26,05,23,8.00
2009,06,26,05,24,7.90
2009,06,26,05,25,7.90
2009,06,26,05,26,7.90
2009,06,26,05,27,7.90
2009,06,26,05,28,7.90
2009,06,26,05,29,8.00
2009,06,26,05,30,8.00
2009,06,26,05,31,8.10
2009,06,26,05,32,8.10
2009,06,26,05,33,8.10
2009,06,26,05,34,8.10
2009,06,26,05,35,8.10
2009,06,26,05,36,8.10
2009,06,26,05,37,8.10
2009,06,26,05,38,8.10
2009,06,26,05,39,8.10
2009,06,26,05,40,8.10
2009,06,26,05,41,8.10
2009,06,26,05,42,8.10
2009,06,26,05,43,8.10
2009,06,26,05,44,8.10
2009,06,26,05,45,8.10
2009,06,26,05,46,8.20
2009,06,26,05,47,8.20
2009,06,26,05,48,8.20
2009,06,26,05,49,8.20
2009,06,26,05,50,8.20
2009,06,26,05,51,8.30
2009,06,26,05,52,8.30
2009,06,26,05,53,8.30
2009,06,26,05,54,8.30
2009,06,26,05,55,8.30
2009,06,26,05,56,8.30
2009,06,26,05,57,8.30
2009,06,26,05,58,8.40
2009,06,26,05,59,8.40
2009,06,26,06,00,8.40
2009,06,26,06,01,8.40
2009,06,26,06,02,8.40
2009,06,26,06,03,8.40
2009,06,26,06,04,8.50
2009,06,26,06,05,8.50
2009,06,26,06,06,8.50
2009,06,26,06,07,8.60
2009,06,26,06,08,8.60
2009,06,26,06,09,8.60
2009,06,26,06,10,8.60
2009,06,26,06,11,8.60
2009,06,26,06,12,8.60
2009,06,26,06,13,8.70
2009,06,26,06,14,8.70
2009,06,26,06,15,8.70
2009,06,26,06,16,8.80
2009,06,26,06,17,8.80
2009,06,26,06,18,8.80
2009,06,26,06,19,8.80
2009,06,26,06,20,8.90
2009,06,26,06,21,8.90
2009,06,26,06,22,8.90
2009,06,26,06,23,9.00
2009,06,26,06,24,9.00
2009,06,26,06,25,9.10
2009,06,26,06,26,9.10
2009,06,26,06,27,9.20
2009,06,26,06,28,9.20
2009,06,26,06,29,9.30
2009,06,26,06,30,9.30
2009,06,26,06,31,9.40
2009,06,26,06,32,9.50
2009,06,26,06,33,9.60
2009,06,26,06,34,9.60
2009,06,26,06,35,9.70
2009,06,26,06,36,9.80
2009,06,26,06,37,9.80
2009,06,26,06,38,9.90
2009,06,26,06,39,9.90
2009,06,26,06,40,10.00
2009,06,26,06,41,10.00
2009,06,26,06,42,10.20
2009,06,26,06,43,10.20
2009,06,26,06,44,10.30
2009,06,26,06,45,10.30
2009,06,26,06,46,10.40
2009,06,26,06,47,10.40
2009,06,26,06,48,10.50
2009,06,26,06,49,10.60
2009,06,26,06,50,10.60
2009,06,26,06,51,10.60
2009,06,26,06,52,10.70
2009,06,26,06,53,10.70
2009,06,26,06,54,10.80
2009,06,26,06,55,10.80
2009,06,26,06,56,10.90
2009,06,26,06,57,10.90
2009,06,26,06,58,10.90
2009,06,26,06,59,11.00
2009,06,26,07,00,11.00
2009,06,26,07,01,11.10
2009,06,26,07,02,11.10
2009,06,26,07,03,11.10
2009,06,26,07,04,11.20
2009,06,26,07,05,11.20
2009,06,26,07,06,11.20
2009,06,26,07,07,11.20
2009,06,26,07,08,11.20
2009,06,26,07,09,11.20
2009,06,26,07,10,11.20
2009,06,26,07,11,11.20
2009,06,26,07,12,11.20
2009,06,26,07,13,11.20
2009,06,26,07,14,11.20
2009,06,26,07,15,11.30
2009,06,26,07,16,11.30
2009,06,26,07,17,11.30
2009,06,26,07,18,11.30
2009,06,26,07,19,11.40
2009,06,26,07,20,11.40
2009,06,26,07,21,11.40
2009,06,26,07,22,11.40
2009,06,26,07,23,11.30
2009,06,26,07,24,11.30
2009,06,26,07,25,11.30
2009,06,26,07,26,11.40
2009,06,26,07,27,11.40
2009,06,26,07,28,11.40
2009,06,26,07,29,11.40
2009,06,26,07,30,11.40
2009,06,26,07,31,11.40
2009,06,26,07,32,11.40
2009,06,26,07,33,11.40
2009,06,26,07,34,11.30
2009,06,26,07,35,11.30
2009,06,26,07,36,11.30
2009,06,26,07,37,11.30
2009,06,26,07,38,11.30
2009,06,26,07,39,11.30
2009,06,26,07,40,11.30
2009,06,26,07,41,11.30
2009,06,26,07,42,11.30
2009,06,26,07,43,11.40
2009,06,26,07,44,11.40
2009,06,26,07,45,11.40
2009,06,26,07,46,11.40
2009,06,26,07,47,11.50
2009,06,26,07,48,11.50
2009,06,26,07,49,11.60
2009,06,26,07,50,11.60
2009,06,26,07,51,11.70
2009,06,26,07,52,11.70
2009,06,26,07,53,11.70
2009,06,26,07,54,11.80
2009,06,26,07,55,11.80
2009,06,26,07,56,11.80
2009,06,26,07,57,11.90
2009,06,26,07,58,11.90
2009,06,26,07,59,12.00
2009,06,26,08,00,12.00
2009,06,26,08,01,12.10
2009,06,26,08,02,12.10
2009,06,26,08,03,12.10
2009,06,26,08,04,12.20
2009,06,26,08,05,12.20
2009,06,26,08,06,12.10
2009,06,26,08,07,12.10
2009,06,26,08,08,12.10
2009,06,26,08,09,12.10
2009,06,26,08,10,12.10
2009,06,26,08,11,12.10
2009,06,26,08,12,12.20
2009,06,26,08,13,12.20
2009,06,26,08,14,12.20
2009,06,26,08,15,12.20
2009,06,26,08,16,12.20
2009,06,26,08,17,12.20
2009,06,26,08,18,12.20
2009,06,26,08,19,12.10
2009,06,26,08,20,12.20
2009,06,26,08,21,12.10
2009,06,26,08,22,12.10
2009,06,26,08,23,12.10
2009,06,26,08,24,12.10
2009,06,26,08,25,12.10
2009,06,26,08,26,12.20
2009,06,26,08,27,12.20
2009,06,26,08,28,12.20
2009,06,26,08,29,12.30
2009,06,26,08,30,12.30
2009,06,26,08,31,12.30
2009,06,26,08,32,12.40
2009,06,26,08,33,12.40
2009,06,26,08,34,12.40
2009,06,26,08,35,12.40
2009,06,26,08,36,12.40
2009,06,26,08,37,12.40
2009,06,26,08,38,12.40
2009,06,26,08,39,12.30
2009,06,26,08,40,12.30
2009,06,26,08,41,12.30
2009,06,26,08,42,12.30
2009,06,26,08,43,12.30
2009,06,26,08,44,12.30
2009,06,26,08,45,12.30
2009,06,26,08,46,12.40
2009,06,26,08,47,12.40
2009,06,26,08,48,12.40
2009,06,26,08,49,12.40
2009,06,26,08,50,12.40
2009,06,26,08,51,12.40
2009,06,26,08,52,12.40
2009,06,26,08,53,12.40
2009,06,26,08,54,12.50
2009,06,26,08,55,12.50
2009,06,26,08,56,12.50
2009,06,26,08,57,12.60
2009,06,26,08,58,12.60
2009,06,26,08,59,12.60
2009,06,26,09,00,12.60
2009,06,26,09,01,12.60
2009,06,26,09,02,12.60
2009,06,26,09,03,12.60
2009,06,26,09,04,12.70
2009,06,26,09,05,12.80
2009,06,26,09,06,12.80
2009,06,26,09,07,12.80
2009,06,26,09,08,12.80
2009,06,26,09,09,12.80
2009,06,26,09,10,12.80
2009,06,26,09,11,12.90
2009,06,26,09,12,13.00
2009,06,26,09,13,13.10
2009,06,26,09,14,13.10
2009,06,26,09,15,13.20
2009,06,26,09,16,13.20
2009,06,26,09,17,13.20
2009,06,26,09,18,13.20
2009,06,26,09,19,13.30
2009,06,26,09,20,13.20
2009,06,26,09,21,13.20
2009,06,26,09,22,13.10
2009,06,26,09,23,13.00
2009,06,26,09,24,12.90
2009,06,26,09,25,12.90
2009,06,26,09,26,13.00
2009,06,26,09,27,13.10
2009,06,26,09,28,13.20
2009,06,26,09,29,13.20
2009,06,26,09,30,13.20
2009,06,26,09,31,13.20
2009,06,26,09,32,13.20
2009,06,26,09,33,13.20
2009,06,26,09,34,13.20
2009,06,26,09,35,13.20
2009,06,26,09,36,13.30
2009,06,26,09,37,13.30
2009,06,26,09,38,13.40
2009,06,26,09,39,13.40
2009,06,26,09,40,13.40
2009,06,26,09,41,13.40
2009,06,26,09,42,13.30
2009,06,26,09,43,13.40
2009,06,26,09,44,13.40
2009,06,26,09,45,13.30
2009,06,26,09,46,13.30
2009,06,26,09,47,13.30
2009,06,26,09,48,13.30
2009,06,26,09,49,13.30
2009,06,26,09,50,13.30
2009,06,26,09,51,13.30
2009,06,26,09,52,13.30
2009,06,26,09,53,13.30
2009,06,26,09,54,13.30
2009,06,26,09,55,13.30
2009,06,26,09,56,13.30
2009,06,26,09,57,13.30
2009,06,26,09,58,13.40
2009,06,26,09,59,13.60
2009,06,26,10,00,13.80
2009,06,26,10,01,13.90
2009,06,26,10,02,14.00
2009,06,26,10,03,14.10
2009,06,26,10,04,14.30
2009,06,26,10,05,14.30
2009,06,26,10,06,14.30
2009,06,26,10,07,14.30
2009,06,26,10,08,14.30
2009,06,26,10,09,14.20
2009,06,26,10,10,14.20
2009,06,26,10,11,14.20
2009,06,26,10,12,14.30
2009,06,26,10,13,14.30
2009,06,26,10,14,14.30
2009,06,26,10,15,14.20
2009,06,26,10,16,14.10
2009,06,26,10,17,14.10
2009,06,26,10,18,14.00
2009,06,26,10,19,14.00
2009,06,26,10,20,13.90
2009,06,26,10,21,13.80
2009,06,26,10,22,13.80
2009,06,26,10,23,13.90
2009,06,26,10,24,13.90
2009,06,26,10,25,13.90
2009,06,26,10,26,13.90
2009,06,26,10,27,13.90
2009,06,26,10,28,13.80
2009,06,26,10,29,13.80
2009,06,26,10,30,13.80
2009,06,26,10,31,13.80
2009,06,26,10,32,13.80
2009,06,26,10,33,13.90
2009,06,26,10,34,13.90
2009,06,26,10,35,13.90
2009,06,26,10,36,13.90
2009,06,26,10,37,13.90
2009,06,26,10,38,14.00
2009,06,26,10,39,14.00
2009,06,26,10,40,14.10
2009,06,26,10,41,14.10
2009,06,26,10,42,14.10
2009,06,26,10,43,14.30
2009,06,26,10,44,14.30
2009,06,26,10,45,14.40
2009,06,26,10,46,14.40
2009,06,26,10,47,14.30
2009,06,26,10,48,14.20
2009,06,26,10,49,14.10
2009,06,26,10,50,14.00
2009,06,26,10,51,13.90
2009,06,26,10,52,13.90
2009,06,26,10,53,13.90
2009,06,26,10,54,13.90
2009,06,26,10,55,13.90
2009,06,26,10,56,13.90
2009,06,26,10,57,13.90
2009,06,26,10,58,13.90
2009,06,26,10,59,13.80
2009,06,26,11,00,13.80
2009,06,26,11,01,14.00
2009,06,26,11,02,14.20
2009,06,26,11,03,14.20
2009,06,26,11,04,14.30
2009,06,26,11,05,14.20
2009,06,26,11,06,14.20
2009,06,26,11,07,14.20
2009,06,26,11,08,14.20
2009,06,26,11,09,14.10
2009,06,26,11,10,14.10
2009,06,26,11,11,14.10
2009,06,26,11,12,14.20
2009,06,26,11,13,14.30
2009,06,26,11,14,14.40
2009,06,26,11,15,14.50
2009,06,26,11,16,14.60
2009,06,26,11,17,14.60
2009,06,26,11,18,14.70
2009,06,26,11,19,14.70
2009,06,26,11,20,14.60
2009,06,26,11,21,14.50
2009,06,26,11,22,14.50
2009,06,26,11,23,14.50
2009,06,26,11,24,14.40
2009,06,26,11,25,14.40
2009,06,26,11,26,14.30
2009,06,26,11,27,14.30
2009,06,26,11,28,14.20
2009,06,26,11,29,14.20
2009,06,26,11,30,14.20
2009,06,26,11,31,14.20
2009,06,26,11,32,14.20
2009,06,26,11,33,14.10
2009,06,26,11,34,14.10
2009,06,26,11,35,14.10
2009,06,26,11,36,14.10
2009,06,26,11,37,14.10
2009,06,26,11,38,14.10
2009,06,26,11,39,14.10
2009,06,26,11,40,14.10
2009,06,26,11,41,14.10
2009,06,26,11,42,14.10
2009,06,26,11,43,14.20
2009,06,26,11,44,14.20
2009,06,26,11,45,14.30
2009,06,26,11,46,14.40
2009,06,26,11,47,14.40
2009,06,26,11,48,14.50
2009,06,26,11,49,14.60
2009,06,26,11,50,14.70
2009,06,26,11,51,14.80
2009,06,26,11,52,15.00
2009,06,26,11,53,15.00
2009,06,26,11,54,15.10
2009,06,26,11,55,15.20
2009,06,26,11,56,15.20
2009,06,26,11,57,15.20
2009,06,26,11,58,15.20
2009,06,26,11,59,15.20
2009,06,26,12,00,15.10
2009,06,26,12,01,15.20
2009,06,26,12,02,15.30
2009,06,26,12,03,15.20
2009,06,26,12,04,15.20
2009,06,26,12,05,15.20
2009,06,26,12,06,15.20
2009,06,26,12,07,15.20
2009,06,26,12,08,15.30
2009,06,26,12,09,15.30
2009,06,26,12,10,15.40
2009,06,26,12,11,15.40
2009,06,26,12,12,15.40
2009,06,26,12,13,15.30
2009,06,26,12,14,15.40
2009,06,26,12,15,15.40
2009,06,26,12,16,15.50
2009,06,26,12,17,15.60
2009,06,26,12,18,15.50
2009,06,26,12,19,15.30
2009,06,26,12,20,15.10
2009,06,26,12,21,15.10
2009,06,26,12,22,15.00
2009,06,26,12,23,15.00
2009,06,26,12,24,15.00
2009,06,26,12,25,15.00
2009,06,26,12,26,15.10
2009,06,26,12,27,15.30
2009,06,26,12,28,15.20
2009,06,26,12,29,15.00
2009,06,26,12,30,14.90
2009,06,26,12,31,14.70
2009,06,26,12,32,14.60
2009,06,26,12,33,14.50
2009,06,26,12,34,14.40
2009,06,26,12,35,14.60
2009,06,26,12,36,14.70
2009,06,26,12,37,14.80
2009,06,26,12,38,14.90
2009,06,26,12,39,15.00
2009,06,26,12,40,15.00
2009,06,26,12,41,15.00
2009,06,26,12,42,15.00
2009,06,26,12,43,15.00
2009,06,26,12,44,14.90
2009,06,26,12,45,14.70
2009,06,26,12,46,14.70
2009,06,26,12,47,14.60
2009,06,26,12,48,14.60
2009,06,26,12,49,14.60
2009,06,26,12,50,14.60
2009,06,26,12,51,14.60
2009,06,26,12,52,14.80
2009,06,26,12,53,14.90
2009,06,26,12,54,15.00
2009,06,26,12,55,15.00
2009,06,26,12,56,15.00
2009,06,26,12,57,15.00
2009,06,26,12,58,15.00
2009,06,26,12,59,15.00
2009,06,26,13,00,15.10
2009,06,26,13,01,15.30
2009,06,26,13,02,15.30
2009,06,26,13,03,15.30
2009,06,26,13,04,15.30
2009,06,26,13,05,15.30
2009,06,26,13,06,15.30
2009,06,26,13,07,15.20
2009,06,26,13,08,15.20
2009,06,26,13,09,15.30
2009,06,26,13,10,15.40
2009,06,26,13,11,15.50
2009,06,26,13,12,15.60
2009,06,26,13,13,15.70
2009,06,26,13,14,15.80
2009,06,26,13,15,15.80
2009,06,26,13,16,15.90
2009,06,26,13,17,15.80
2009,06,26,13,18,15.60
2009,06,26,13,19,15.50
2009,06,26,13,20,15.40
2009,06,26,13,21,15.30
2009,06,26,13,22,15.40
2009,06,26,13,23,15.50
2009,06,26,13,24,15.40
2009,06,26,13,25,15.40
2009,06,26,13,26,15.40
2009,06,26,13,27,15.30
2009,06,26,13,28,15.20
2009,06,26,13,29,15.10
2009,06,26,13,30,15.00
2009,06,26,13,31,15.00
2009,06,26,13,32,15.10
2009,06,26,13,33,15.30
2009,06,26,13,34,15.50
2009,06,26,13,35,15.70
2009,06,26,13,36,15.80
2009,06,26,13,37,15.90
2009,06,26,13,38,16.00
2009,06,26,13,39,16.10
2009,06,26,13,40,16.10
2009,06,26,13,41,16.10
2009,06,26,13,42,16.10
2009,06,26,13,43,16.00
2009,06,26,13,44,15.90
2009,06,26,13,45,15.80
2009,06,26,13,46,15.60
2009,06,26,13,47,15.50
2009,06,26,13,48,15.40
2009,06,26,13,49,15.40
2009,06,26,13,50,15.40
2009,06,26,13,51,15.60
2009,06,26,13,52,15.70
2009,06,26,13,53,15.80
2009,06,26,13,54,15.80
2009,06,26,13,55,15.70
2009,06,26,13,56,15.60
2009,06,26,13,57,15.40
2009,06,26,13,58,15.30
2009,06,26,13,59,15.50
2009,06,26,14,00,15.60
2009,06,26,14,01,15.50
2009,06,26,14,02,15.60
2009,06,26,14,03,15.60
2009,06,26,14,04,15.60
2009,06,26,14,05,15.60
2009,06,26,14,06,15.50
2009,06,26,14,07,15.50
2009,06,26,14,08,15.40
2009,06,26,14,09,15.40
2009,06,26,14,10,15.40
2009,06,26,14,11,15.40
2009,06,26,14,12,15.30
2009,06,26,14,13,15.20
2009,06,26,14,14,15.20
2009,06,26,14,15,15.20
2009,06,26,14,16,15.20
2009,06,26,14,17,15.30
2009,06,26,14,18,15.40
2009,06,26,14,19,15.50
2009,06,26,14,20,15.50
2009,06,26,14,21,15.60
2009,06,26,14,22,15.60
2009,06,26,14,23,15.70
2009,06,26,14,24,15.80
2009,06,26,14,25,15.80
2009,06,26,14,26,15.80
2009,06,26,14,27,15.80
2009,06,26,14,28,15.90
2009,06,26,14,29,15.90
2009,06,26,14,30,15.80
2009,06,26,14,31,15.90
2009,06,26,14,32,15.90
2009,06,26,14,33,15.80
2009,06,26,14,34,15.70
2009,06,26,14,35,15.70
2009,06,26,14,36,15.70
2009,06,26,14,37,15.80
2009,06,26,14,38,15.70
2009,06,26,14,39,15.70
2009,06,26,14,40,15.70
2009,06,26,14,41,15.70
2009,06,26,14,42,15.70
2009,06,26,14,43,15.60
2009,06,26,14,44,15.50
2009,06,26,14,45,15.50
2009,06,26,14,46,15.50
2009,06,26,14,47,15.60
2009,06,26,14,48,15.60
2009,06,26,14,49,15.50
2009,06,26,14,50,15.50
2009,06,26,14,51,15.40
2009,06,26,14,52,15.30
2009,06,26,14,53,15.30
2009,06,26,14,54,15.30
2009,06,26,14,55,15.30
2009,06,26,14,56,15.40
2009,06,26,14,57,15.50
2009,06,26,14,58,15.60
2009,06,26,14,59,15.80
2009,06,26,15,00,15.80
2009,06,26,15,01,15.70
2009,06,26,15,02,15.70
2009,06,26,15,03,15.80
2009,06,26,15,04,15.90
2009,06,26,15,05,15.90
2009,06,26,15,06,15.80
2009,06,26,15,07,15.80
2009,06,26,15,08,15.90
2009,06,26,15,09,15.80
2009,06,26,15,10,15.70
2009,06,26,15,11,15.60
2009,06,26,15,12,15.60
2009,06,26,15,13,15.60
2009,06,26,15,14,15.60
2009,06,26,15,15,15.60
2009,06,26,15,16,15.70
2009,06,26,15,17,15.60
2009,06,26,15,18,15.60
2009,06,26,15,19,15.70
2009,06,26,15,20,15.80
2009,06,26,15,21,15.90
2009,06,26,15,22,16.10
2009,06,26,15,23,16.20
2009,06,26,15,24,16.20
2009,06,26,15,25,16.20
2009,06,26,15,26,16.20
2009,06,26,15,27,16.20
2009,06,26,15,28,16.10
2009,06,26,15,29,16.10
2009,06,26,15,30,16.10
2009,06,26,15,31,16.10
2009,06,26,15,32,16.10
2009,06,26,15,33,16.00
2009,06,26,15,34,16.00
2009,06,26,15,35,16.10
2009,06,26,15,36,16.20
2009,06,26,15,37,16.30
2009,06,26,15,38,16.30
2009,06,26,15,39,16.20
2009,06,26,15,40,16.10
2009,06,26,15,41,16.10
2009,06,26,15,42,16.10
2009,06,26,15,43,16.10
2009,06,26,15,44,16.00
2009,06,26,15,45,15.90
2009,06,26,15,46,15.90
2009,06,26,15,47,15.90
2009,06,26,15,48,15.90
2009,06,26,15,49,15.90
2009,06,26,15,50,15.80
2009,06,26,15,51,15.80
2009,06,26,15,52,15.90
2009,06,26,15,53,16.00
2009,06,26,15,54,16.10
2009,06,26,15,55,16.20
2009,06,26,15,56,16.20
2009,06,26,15,57,16.40
2009,06,26,15,58,16.40
2009,06,26,15,59,16.60
2009,06,26,16,00,16.70
2009,06,26,16,01,16.70
2009,06,26,16,02,16.70
2009,06,26,16,03,16.70
2009,06,26,16,04,16.80
2009,06,26,16,05,16.80
2009,06,26,16,06,16.80
2009,06,26,16,07,16.80
2009,06,26,16,08,16.80
2009,06,26,16,09,16.80
2009,06,26,16,10,16.80
2009,06,26,16,11,16.80
2009,06,26,16,12,16.80
2009,06,26,16,13,16.90
2009,06,26,16,14,16.90
2009,06,26,16,15,16.90
2009,06,26,16,16,17.00
2009,06,26,16,17,17.10
2009,06,26,16,18,17.10
2009,06,26,16,19,17.20
2009,06,26,16,20,17.30
2009,06,26,16,21,17.20
2009,06,26,16,22,17.20
2009,06,26,16,23,17.10
2009,06,26,16,24,17.00
2009,06,26,16,25,17.00
2009,06,26,16,26,16.90
2009,06,26,16,27,16.80
2009,06,26,16,28,16.80
2009,06,26,16,29,16.80
2009,06,26,16,30,16.90
2009,06,26,16,31,16.80
2009,06,26,16,32,16.80
2009,06,26,16,33,16.90
2009,06,26,16,34,17.00
2009,06,26,16,35,17.10
2009,06,26,16,36,17.00
2009,06,26,16,37,16.90
2009,06,26,16,38,16.80
2009,06,26,16,39,16.80
2009,06,26,16,40,16.80
2009,06,26,16,41,16.80
2009,06,26,16,42,16.80
2009,06,26,16,43,16.80
2009,06,26,16,44,16.80
2009,06,26,16,45,16.90
2009,06,26,16,46,17.00
2009,06,26,16,47,17.20
2009,06,26,16,48,17.20
2009,06,26,16,49,17.20
2009,06,26,16,50,17.10
2009,06,26,16,51,17.10
2009,06,26,16,52,17.10
2009,06,26,16,53,17.20
2009,06,26,16,54,17.20
2009,06,26,16,55,17.20
2009,06,26,16,56,17.30
2009,06,26,16,57,17.20
2009,06,26,16,58,17.10
2009,06,26,16,59,16.90
2009,06,26,17,00,16.60
2009,06,26,17,01,16.40
2009,06,26,17,02,16.20
2009,06,26,17,03,16.10
2009,06,26,17,04,16.00
2009,06,26,17,05,15.90
2009,06,26,17,06,15.80
2009,06,26,17,07,15.70
2009,06,26,17,08,15.70
2009,06,26,17,09,15.70
2009,06,26,17,10,15.70
2009,06,26,17,11,15.70
2009,06,26,17,12,15.80
2009,06,26,17,13,15.80
2009,06,26,17,14,15.80
2009,06,26,17,15,15.80
2009,06,26,17,16,15.80
2009,06,26,17,17,15.70
2009,06,26,17,18,15.70
2009,06,26,17,19,15.70
2009,06,26,17,20,15.80
2009,06,26,17,21,15.90
2009,06,26,17,22,15.90
2009,06,26,17,23,15.90
2009,06,26,17,24,16.00
2009,06,26,17,25,16.10
2009,06,26,17,26,16.10
2009,06,26,17,27,16.10
2009,06,26,17,28,16.20
2009,06,26,17,29,16.20
2009,06,26,17,30,16.30
2009,06,26,17,31,16.40
2009,06,26,17,32,16.40
2009,06,26,17,33,16.40
2009,06,26,17,34,16.40